Previsão horária em Allahabad

Hoje, 20 Janeiro, Quarta-feira

Tempo Temperatura Precipitação Vento Pressão Humidade
00:00 +16°C° 0 mm 2 m/s 750 mmHg 68%
01:00 +15°C° 0 mm 2 m/s 750 mmHg 70%
02:00 +15°C° 0 mm 2 m/s 750 mmHg 72%
03:00 +14°C° 0 mm 2 m/s 750 mmHg 73%
04:00 +14°C° 0 mm 2 m/s 750 mmHg 75%
05:00 +13°C° 0 mm 2 m/s 750 mmHg 76%
06:00 +14°C° 0 mm 2 m/s 751 mmHg 73%
07:00 +14°C° 0 mm 3 m/s 751 mmHg 69%
08:00 +16°C° 0 mm 3 m/s 752 mmHg 65%
09:00 +19°C° 0 mm 3 m/s 752 mmHg 58%
10:00 +21°C° 0 mm 3 m/s 752 mmHg 50%
11:00 +25°C° 0 mm 3 m/s 752 mmHg 43%
12:00 +26°C° 0 mm 3 m/s 751 mmHg 39%
13:00 +27°C° 0 mm 4 m/s 750 mmHg 35%
14:00 +28°C° 0 mm 4 m/s 749 mmHg 32%
15:00 +26°C° 0 mm 4 m/s 750 mmHg 36%
16:00 +24°C° 0 mm 3 m/s 750 mmHg 40%
17:00 +21°C° 0 mm 2 m/s 750 mmHg 44%
18:00 +20°C° 0 mm 2 m/s 750 mmHg 47%
19:00 +19°C° 0 mm 2 m/s 751 mmHg 49%
20:00 +18°C° 0 mm 2 m/s 751 mmHg 52%
21:00 +17°C° 0 mm 2 m/s 751 mmHg 53%
22:00 +16°C° 0 mm 2 m/s 751 mmHg 55%
23:00 +15°C° 0 mm 2 m/s 751 mmHg 57%

Amanhã, 21 Janeiro, Quinta-feira

Tempo Temperatura Precipitação Vento Pressão Humidade
00:00 +15°C° 0 mm 2 m/s 751 mmHg 58%
01:00 +14°C° 0 mm 2 m/s 751 mmHg 60%
02:00 +13°C° 0 mm 2 m/s 750 mmHg 62%
03:00 +12°C° 0 mm 3 m/s 750 mmHg 63%
04:00 +11°C° 0 mm 3 m/s 750 mmHg 64%
05:00 +11°C° 0 mm 3 m/s 751 mmHg 65%
06:00 +12°C° 0 mm 3 m/s 751 mmHg 62%
07:00 +13°C° 0 mm 3 m/s 752 mmHg 59%
08:00 +14°C° 0 mm 3 m/s 752 mmHg 56%
09:00 +18°C° 0 mm 3 m/s 752 mmHg 48%
10:00 +20°C° 0 mm 3 m/s 752 mmHg 40%
11:00 +24°C° 0 mm 3 m/s 752 mmHg 32%
12:00 +25°C° 0 mm 4 m/s 752 mmHg 30%
13:00 +26°C° 0 mm 4 m/s 751 mmHg 27%
14:00 +26°C° 0 mm 4 m/s 750 mmHg 24%
15:00 +25°C° 0 mm 3 m/s 750 mmHg 29%
16:00 +22°C° 0 mm 3 m/s 750 mmHg 33%
17:00 +20°C° 0 mm 2 m/s 750 mmHg 37%
18:00 +19°C° 0 mm 2 m/s 751 mmHg 38%
19:00 +17°C° 0 mm 2 m/s 751 mmHg 38%
20:00 +16°C° 0 mm 2 m/s 752 mmHg 39%
21:00 +16°C° 0 mm 2 m/s 752 mmHg 41%
22:00 +15°C° 0 mm 2 m/s 752 mmHg 42%
23:00 +14°C° 0 mm 2 m/s 752 mmHg 44%

Depois de amanhã, 22 Janeiro, Sexta-feira

Tempo Temperatura Precipitação Vento Pressão Humidade
00:00 +13°C° 0 mm 2 m/s 752 mmHg 46%
01:00 +13°C° 0 mm 1 m/s 751 mmHg 48%
02:00 +12°C° 0 mm 1 m/s 751 mmHg 51%
03:00 +12°C° 0 mm 1 m/s 751 mmHg 52%
04:00 +11°C° 0 mm 1 m/s 752 mmHg 54%
05:00 +11°C° 0 mm 1 m/s 752 mmHg 55%
06:00 +12°C° 0 mm 1 m/s 752 mmHg 53%
07:00 +13°C° 0 mm 1 m/s 753 mmHg 51%
08:00 +14°C° 0 mm 1 m/s 753 mmHg 49%
09:00 +18°C° 0 mm 1 m/s 753 mmHg 45%
10:00 +20°C° 0 mm 1 m/s 753 mmHg 40%
11:00 +23°C° 0 mm 1 m/s 753 mmHg 35%
12:00 +24°C° 0 mm 1 m/s 752 mmHg 33%
13:00 +25°C° 0 mm 1 m/s 751 mmHg 31%
14:00 +26°C° 0 mm 1 m/s 750 mmHg 29%
15:00 +24°C° 0 mm 1 m/s 750 mmHg 33%
16:00 +22°C° 0 mm 1 m/s 750 mmHg 37%
17:00 +20°C° 0 mm 1 m/s 750 mmHg 42%
18:00 +19°C° 0 mm 1 m/s 750 mmHg 45%
19:00 +18°C° 0 mm 1 m/s 751 mmHg 47%
20:00 +16°C° 0 mm 1 m/s 751 mmHg 50%
21:00 +14°C° 0 mm 0 m/s 751 mmHg 54%
22:00 +13°C° 0 mm 0 m/s 751 mmHg 57%
23:00 +13°C° 0 mm 0 m/s 751 mmHg 60%

23 Janeiro, Sábado

Tempo Temperatura Precipitação Vento Pressão Humidade
00:00 +12°C° 0 mm 0 m/s 751 mmHg 62%
01:00 +12°C° 0 mm 0 m/s 751 mmHg 64%
02:00 +11°C° 0 mm 0 m/s 750 mmHg 66%
03:00 +11°C° 0 mm 0 m/s 750 mmHg 66%
04:00 +12°C° 0 mm 1 m/s 750 mmHg 65%
05:00 +11°C° 0 mm 1 m/s 750 mmHg 65%
06:00 +13°C° 0 mm 1 m/s 751 mmHg 61%
07:00 +14°C° 0 mm 1 m/s 751 mmHg 58%
08:00 +16°C° 0 mm 1 m/s 751 mmHg 54%
09:00 +19°C° 0 mm 1 m/s 751 mmHg 48%
10:00 +22°C° 0 mm 1 m/s 751 mmHg 42%
11:00 +24°C° 0 mm 2 m/s 751 mmHg 37%
12:00 +25°C° 0 mm 1 m/s 750 mmHg 34%
13:00 +26°C° 0 mm 1 m/s 750 mmHg 31%
14:00 +27°C° 0 mm 1 m/s 749 mmHg 29%
15:00 +25°C° 0 mm 1 m/s 749 mmHg 33%
16:00 +24°C° 0 mm 1 m/s 748 mmHg 37%
17:00 +22°C° 0 mm 1 m/s 748 mmHg 41%
18:00 +20°C° 0 mm 2 m/s 749 mmHg 43%
19:00 +19°C° 0 mm 2 m/s 749 mmHg 45%
20:00 +17°C° 0 mm 3 m/s 750 mmHg 47%
21:00 +17°C° 0 mm 3 m/s 750 mmHg 49%
22:00 +16°C° 0 mm 3 m/s 750 mmHg 51%
23:00 +14°C° 0 mm 3 m/s 750 mmHg 53%

24 Janeiro, Domingo

Tempo Temperatura Precipitação Vento Pressão Humidade
00:00 +14°C° 0 mm 3 m/s 749 mmHg 54%
01:00 +13°C° 0 mm 3 m/s 749 mmHg 55%
02:00 +13°C° 0 mm 3 m/s 749 mmHg 56%
03:00 +12°C° 0 mm 3 m/s 749 mmHg 57%
04:00 +12°C° 0 mm 3 m/s 749 mmHg 58%
05:00 +12°C° 0 mm 3 m/s 749 mmHg 59%
06:00 +13°C° 0 mm 3 m/s 749 mmHg 55%
07:00 +14°C° 0 mm 3 m/s 750 mmHg 52%
08:00 +16°C° 0 mm 3 m/s 750 mmHg 48%
09:00 +19°C° 0 mm 3 m/s 750 mmHg 41%
10:00 +22°C° 0 mm 3 m/s 750 mmHg 35%
11:00 +26°C° 0 mm 3 m/s 750 mmHg 28%
12:00 +27°C° 0 mm 2 m/s 749 mmHg 26%
13:00 +29°C° 0 mm 2 m/s 749 mmHg 24%
14:00 +30°C° 0 mm 1 m/s 748 mmHg 22%
15:00 +28°C° 0 mm 2 m/s 748 mmHg 26%
16:00 +26°C° 0 mm 2 m/s 748 mmHg 30%
17:00 +25°C° 0 mm 2 m/s 748 mmHg 34%
18:00 +23°C° 0 mm 2 m/s 749 mmHg 38%
19:00 +20°C° 0 mm 2 m/s 750 mmHg 43%
20:00 +19°C° 0 mm 2 m/s 750 mmHg 47%
21:00 +19°C° 0 mm 1 m/s 750 mmHg 52%
22:00 +18°C° 0 mm 1 m/s 751 mmHg 57%
23:00 +16°C° 0 mm 1 m/s 751 mmHg 63%

25 Janeiro, Segunda-feira

Tempo Temperatura Precipitação Vento Pressão Humidade
00:00 +16°C° 0 mm 1 m/s 751 mmHg 63%
01:00 +15°C° 0 mm 1 m/s 751 mmHg 64%
02:00 +15°C° 0 mm 2 m/s 751 mmHg 64%
03:00 +14°C° 0 mm 2 m/s 751 mmHg 67%
04:00 +13°C° 0 mm 2 m/s 751 mmHg 69%
05:00 +13°C° 0 mm 2 m/s 751 mmHg 71%
06:00 +14°C° 0 mm 2 m/s 751 mmHg 68%
07:00 +15°C° 0 mm 2 m/s 752 mmHg 66%
08:00 +16°C° 0 mm 2 m/s 752 mmHg 64%
09:00 +18°C° 0 mm 2 m/s 752 mmHg 56%
10:00 +21°C° 0 mm 2 m/s 752 mmHg 49%
11:00 +24°C° 0 mm 2 m/s 752 mmHg 42%
12:00 +25°C° 0 mm 2 m/s 751 mmHg 39%
13:00 +26°C° 0 mm 2 m/s 751 mmHg 36%
14:00 +28°C° 0 mm 1 m/s 750 mmHg 33%
15:00 +26°C° 0 mm 1 m/s 750 mmHg 37%
16:00 +24°C° 0 mm 1 m/s 750 mmHg 40%
17:00 +23°C° 0 mm 1 m/s 750 mmHg 43%
18:00 +20°C° 0 mm 2 m/s 751 mmHg 44%
19:00 +19°C° 0 mm 2 m/s 751 mmHg 45%
20:00 +17°C° 0 mm 3 m/s 752 mmHg 46%
21:00 +17°C° 0 mm 3 m/s 752 mmHg 47%
22:00 +16°C° 0 mm 2 m/s 752 mmHg 48%
23:00 +15°C° 0 mm 2 m/s 752 mmHg 49%
Mostrar mais

Necessitamos do seu Consentimento

A Meteoprog e os seus Fornecedores de Serviços podem armazenar e aceder a dados pessoais como cookies, identificadores do dispositivo ou outras tecnologias semelhantes existentes no seu dispositivo e processar estes dados para personalizar conteúdos e anúncios, assim como funcionalidades nas redes sociais e análise de tráfego.

  • Armazenar e/ou aceder a informações no seu dispositivo

    Os cookies, identificadores do dispositivo ou outras informações podem ser armazenados ou acedidos no seu dispositivo, para os fins acima indicados.

  • Anúncios e conteúdos personalizados, medição de anúncios e conteúdos, dados sobre o público-alvo e desenvolvimento de produtos

    Os anúncios e os conteúdos podem ser personalizados com base num perfil. Podem ser adicionados dados adicionais para uma maior personalização dos anúncios e dos conteúdos. A eficácia dos anúncios e dos conteúdos pode ser medida. Podem ser obtidas informações sobre o público que visualizou os anúncios e os conteúdos. Estes dados podem ser usados para desenvolver ou melhorar sistemas, softwares ou a experiência do utilizador.

Ao clicar em "Eu concordo”, permitirá o uso de cookies, identificadores do dispositivo e web beacons mencionados ou outras tecnologias semelhantes. As configurações do navegador do seu dispositivo podem ser alteradas.

Para certos fins, podem ser invocados interesses legítimos ao invés de consentimento. Pode ler mais informação sobre este assunto na nossa Política de Privacidade e Cookies.